STARLINK-31885, 59660

Orbit data source: Space-Track

STARLINK-31885, 59660 is a payload satellite owned by SpaceX/Seattle (US) in LEO that was launched on Mon, 06 May 2024 UTC via an FALCON 9 launch vehicle from the Air Force Eastern Test Range (AFETR). Payload-class satellites include a variety of spacecraft equipped with specific instruments for various scientific and technological missions. These include communications satellites like Starlink; space stations such as the ISS; scientific satellites like the Hubble; Earth observation satellites from companies like Planet Labs, Umbra, and HawkEye 360; GPS; miniature CubeSats for education and research; and military/defense satellites.

Loading next visibility...
Identifier
59660, 2024-084G
Orbit
LEO
Country
Flag of USUS
Related business
Manufacturer
SpaceX/Seattle
Mission
Operational Commercial Communications
Bus & Motor
STARLINK V2M, Unknown motor
Mass
730 kg wet, ~700 kg dry
Launch date (UTC)
2024-05-06 (2 years ago)
Launch vehicle
FALCON 9
Launch site
Air Force Eastern Test Range (AFETR)
Object type
Payload
Rocket body
Debris
Shape & HBR
Box + 2 Pan, 17.7 m
Radar Cross Section
33.884 m², Large (>1 m²)

Expand to show TLE details & history
Last TLE update: 1 day ago

TLE from 1 day ago
0 STARLINK-31885
1 59660U 24084G   25347.77816254  .00002770  00000-0  11016-3 0  9993
2 59660  43.0005 163.5598 0001483 258.8379 101.2306 15.27574242 91276
Epoch: 2025-12-13T18:40Z
TLE epoch observation values (Epoch: 2025-12-13T18:40:33.243Z)
Latitude
-0.00001°
Longitude
160.72072°
Altitude
483.04 km
Speed
7.626 km/s
True Right ascension
10h 54m 14s
True Declination
0° 00' 00"
Sunlit
Object was in daylight at epoch
Visualization orbit readout
Latitude
Unknown
Longitude
Unknown
Altitude
Unknown
Speed
Unknown
Apparent Right ascension
Unknown
Apparent Declination
Unknown
Sunlit
N/A
Visualization observer readout
Local Sidereal Time
19:46:02
Azimuth
Unknown
Elevation
Unknown
Doppler factor
Unknown
Orbital elements
Apogee altitude
486.029 km
Perigee altitude
483.994 km
Semi-major axis
6,863.148 km
Eccentricity
0.00015
Inclination
43.0005°
RAAN
163.5598°
Arg. of periapsis
258.8379°
True anomaly
101.24727°
Mean anomaly
101.2306°
Eccentric anomaly
101.23893°
Mean motion
3.81732 °/min
Orbital period
94.31 mins
BSTAR
0.00011016
Loading maneuver chart data...
Computing Atmospheric mass density...
Loading historical data...
Loading historical data...
Loading historical data...
Loading historical data...
Loading historical data...
Loading historical data...
Loading historical data...

Documentation

Showing up to 5 results
|